Miscellaneous Local Product
Issued by NWS Hastings, NE

Home | Current Version | Previous Version | Text Only | Print | Product List | Glossary Off
Versions: 1 2 3 4 5 6 7 8 9 10 11 12 13 14 15 16 17 18 19 20 21 22 23 24 25 26 27 28 29 30 31 32 33 34 35 36 37 38 39 40 41 42 43 44 45 46 47 48 49 50

000
AXUS43 KGID 040502
MISGRI

GID CWA HOURLY WEATHER ROUNDUP
NATIONAL WEATHER SERVICE HASTINGS NE
1200 AM CDT MON MAY 04 2015

NOTE: "FAIR" INDICATES FEW OR NO CLOUDS BELOW 12,000 FEET WITH NO
SIGNIFICANT WEATHER AND/OR OBSTRUCTIONS TO VISIBILITY.

...SOUTH CENTRAL NEBRASKA...

CITY           SKY/WX    TMP DP  RH WIND       PRES   REMARKS
GRAND ISLAND   PTCLDY    64  42  44 NE21G28   29.89R
HASTINGS       PTCLDY    66  45  46 N18G28    29.86S
KEARNEY        MOCLDY    63  41  45 N17G23    29.91R
ORD            PTCLDY    62  37  39 N16G24    29.94R
YORK           CLEAR     66  55  68 NE23G30   29.87R
AURORA         PTCLDY    66  51  59 NE21G26   29.88R
LEXINGTON      MOCLDY    62  40  44 NE17      29.94R
HOLDREGE       MOCLDY    64  44  47 N17       29.90R
HEBRON         PTCLDY    73  56  56 S12       29.81F

...NEBRASKA PANHANDLE...

CITY           SKY/WX    TMP DP  RH WIND       PRES   REMARKS
CHADRON        MOCLDY    50  39  66 E3        30.05R
ALLIANCE       CLOUDY    54  38  54 E9        30.06R
SCOTTSBLUFF    MOCLDY    53  40  61 E8        30.06R
SIDNEY         MOCLDY    55  40  56 NE12      30.05S

...WESTERN AND NORTH CENTRAL NEBRASKA...

CITY           SKY/WX    TMP DP  RH WIND       PRES   REMARKS
VALENTINE      MOCLDY    56  30  37 NE10      30.06R
AINSWORTH      CLOUDY    58  34  40 NE10      30.06R
ONEILL         PTCLDY    61  38  43 NE13      30.01R
BROKEN BOW     CLOUDY    62  38  40 NE17      29.96R
IMPERIAL       CLOUDY    59  39  47 NE15      30.00R
NORTH PLATTE   CLOUDY    58  40  51 NE12      29.99R
MCCOOK         CLOUDY    63  42  46 NE16      29.95R

...EASTERN NEBRASKA...

CITY           SKY/WX    TMP DP  RH WIND       PRES   REMARKS
NORFOLK        PTCLDY    64  39  39 NE17G26   29.94R
SO SIOUX CITY  CLOUDY    63  44  50 NE17G26   29.93F
TEKAMAH        MOCLDY    67  49  52 N18       29.89R
COLUMBUS       PTCLDY    63  46  55 NE18      29.92R
ALBION         PTCLDY    63  37  38 NE22G28   29.92F
OMAHA EPPLEY   CLOUDY    67  56  67 N14       29.86R
OFFUTT AFB     PTCLDY    70  56  61 NW12      29.85R
MILLARD        CLOUDY    69  56  65 NW7       29.85R
LINCOLN        CLOUDY    66  59  78 N9        29.87R
NEBRASKA CITY  CLOUDY    70  54  56 SE3       29.84R
BEATRICE       RAIN      67  62  83 S22       29.83F
FALLS CITY     CLOUDY    71  58  63 SE8       29.87F

...NORTHERN KANSAS...

CITY           SKY/WX    TMP DP  RH WIND       PRES   REMARKS
GOODLAND       CLOUDY    63  48  58 NW17      30.01R
HILL CITY      CLOUDY    62  55  77 W3        29.95R
NORTON         CLEAR     68  45  42 NE13G23   29.93R
PHILLIPSBURG   CLEAR     72  48  43 NE9       29.91R
SMITH CENTER   PTCLDY    70  48  46 N17G24    29.88R
BELOIT         CLEAR     73  55  53 SW13      29.84R
HAYS           CLOUDY    73  46  38 NW24      29.87R
RUSSELL        CLOUDY    70  51  51 W14G23    29.85R
CONCORDIA      MOCLDY    71  60  68 S20G33    29.82R
SALINA         CLOUDY    71  59  65 S13G23    29.84F
TOPEKA         MOCLDY    72  57  59 S17G24    29.88S



USA.gov is the U.S. government's official web portal to all federal, state and local government web resources and services.